Meteo pe oră la Czworka

Astăzi, 14 Aprilie, Miercuri

Timp Temperatura Precipitaţii Vânt Presiune Umiditate
00:00 +1°C° 0 mm 4 m/s 751 mmHg 67%
01:00 +1°C° 0 mm 4 m/s 751 mmHg 70%
02:00 +2°C° 0 mm 3 m/s 751 mmHg 70%
03:00 +2°C° 0 mm 3 m/s 751 mmHg 69%
04:00 +2°C° 0 mm 3 m/s 751 mmHg 69%
05:00 +2°C° 0 mm 3 m/s 751 mmHg 70%
06:00 +2°C° 0 mm 3 m/s 751 mmHg 70%
07:00 +1°C° 0 mm 4 m/s 751 mmHg 70%
08:00 +3°C° 0 mm 4 m/s 751 mmHg 66%
09:00 +3°C° 0 mm 5 m/s 751 mmHg 63%
10:00 +5°C° 0 mm 5 m/s 751 mmHg 60%
11:00 +5°C° 0.1 mm 5 m/s 751 mmHg 57%
12:00 +5°C° 0.1 mm 5 m/s 751 mmHg 54%
13:00 +6°C° 0.1 mm 5 m/s 750 mmHg 51%
14:00 +6°C° 0.1 mm 5 m/s 750 mmHg 53%
15:00 +6°C° 0.1 mm 5 m/s 750 mmHg 54%
16:00 +6°C° 0.1 mm 5 m/s 750 mmHg 56%
17:00 +5°C° 0.1 mm 5 m/s 750 mmHg 61%
18:00 +4°C° 0.1 mm 4 m/s 751 mmHg 65%
19:00 +3°C° 0.1 mm 3 m/s 751 mmHg 70%
20:00 +3°C° 0 mm 3 m/s 751 mmHg 73%
21:00 +2°C° 0 mm 3 m/s 751 mmHg 75%
22:00 +2°C° 0 mm 3 m/s 751 mmHg 78%
23:00 +2°C° 0 mm 3 m/s 751 mmHg 78%

Mâine, 15 Aprilie, Joi

Timp Temperatura Precipitaţii Vânt Presiune Umiditate
00:00 +2°C° 0 mm 3 m/s 751 mmHg 78%
01:00 +1°C° 0 mm 3 m/s 751 mmHg 78%
02:00 0°C° 0.1 mm 4 m/s 751 mmHg 83%
03:00 0°C° 0.1 mm 4 m/s 750 mmHg 88%
04:00 -1°C° 0.1 mm 4 m/s 750 mmHg 92%
05:00 -1°C° 0.4 mm 5 m/s 750 mmHg 94%
06:00 -1°C° 0.4 mm 5 m/s 750 mmHg 95%
07:00 -1°C° 0.4 mm 5 m/s 750 mmHg 96%
08:00 -1°C° 0.8 mm 5 m/s 750 mmHg 97%
09:00 -2°C° 0.8 mm 6 m/s 750 mmHg 97%
10:00 -2°C° 0.8 mm 6 m/s 750 mmHg 98%
11:00 -2°C° 0.9 mm 6 m/s 750 mmHg 98%
12:00 -2°C° 0.9 mm 6 m/s 749 mmHg 98%
13:00 -2°C° 0.9 mm 6 m/s 749 mmHg 98%
14:00 -1°C° 1 mm 5 m/s 749 mmHg 98%
15:00 -1°C° 1 mm 5 m/s 749 mmHg 98%
16:00 -1°C° 1 mm 5 m/s 749 mmHg 98%
17:00 -1°C° 0.6 mm 4 m/s 748 mmHg 99%
18:00 -1°C° 0.6 mm 4 m/s 748 mmHg 99%
19:00 0°C° 0.6 mm 3 m/s 748 mmHg 99%
20:00 0°C° 0.3 mm 3 m/s 748 mmHg 99%
21:00 0°C° 0.3 mm 3 m/s 748 mmHg 99%
22:00 +1°C° 0.3 mm 2 m/s 748 mmHg 99%
23:00 +1°C° 0.2 mm 2 m/s 748 mmHg 99%

Poimâine, 16 Aprilie, Vineri

Timp Temperatura Precipitaţii Vânt Presiune Umiditate
00:00 +1°C° 0.2 mm 2 m/s 748 mmHg 99%
01:00 +1°C° 0.2 mm 2 m/s 748 mmHg 99%
02:00 +1°C° 0.2 mm 2 m/s 748 mmHg 99%
03:00 +2°C° 0.2 mm 2 m/s 747 mmHg 99%
04:00 +2°C° 0.2 mm 2 m/s 747 mmHg 99%
05:00 +1°C° 0.2 mm 3 m/s 748 mmHg 99%
06:00 +1°C° 0.2 mm 3 m/s 748 mmHg 99%
07:00 +2°C° 0.2 mm 3 m/s 748 mmHg 99%
08:00 +2°C° 0.1 mm 3 m/s 748 mmHg 99%
09:00 +3°C° 0.1 mm 2 m/s 748 mmHg 99%
10:00 +3°C° 0.1 mm 2 m/s 749 mmHg 99%
11:00 +3°C° 0.1 mm 2 m/s 749 mmHg 98%
12:00 +3°C° 0.1 mm 2 m/s 749 mmHg 98%
13:00 +3°C° 0.1 mm 2 m/s 749 mmHg 98%
14:00 +3°C° 0 mm 2 m/s 749 mmHg 98%
15:00 +3°C° 0 mm 2 m/s 749 mmHg 98%
16:00 +3°C° 0 mm 2 m/s 749 mmHg 98%
17:00 +3°C° 0 mm 2 m/s 749 mmHg 98%
18:00 +2°C° 0 mm 2 m/s 750 mmHg 98%
19:00 +2°C° 0 mm 2 m/s 750 mmHg 98%
20:00 +3°C° 0 mm 2 m/s 750 mmHg 98%
21:00 +3°C° 0 mm 2 m/s 750 mmHg 99%
22:00 +3°C° 0 mm 2 m/s 750 mmHg 99%
23:00 +3°C° 0.1 mm 2 m/s 750 mmHg 99%

17 Aprilie, Sâmbătă

Timp Temperatura Precipitaţii Vânt Presiune Umiditate
00:00 +3°C° 0.1 mm 2 m/s 750 mmHg 99%
01:00 +3°C° 0.1 mm 2 m/s 749 mmHg 99%
02:00 +3°C° 0 mm 2 m/s 749 mmHg 99%
03:00 +3°C° 0 mm 2 m/s 749 mmHg 99%
04:00 +3°C° 0 mm 2 m/s 749 mmHg 99%
05:00 +3°C° 0 mm 2 m/s 749 mmHg 99%
06:00 +3°C° 0 mm 2 m/s 749 mmHg 98%
07:00 +4°C° 0 mm 2 m/s 749 mmHg 98%
08:00 +4°C° 0 mm 2 m/s 749 mmHg 98%
09:00 +5°C° 0 mm 2 m/s 749 mmHg 97%
10:00 +5°C° 0 mm 2 m/s 749 mmHg 96%
11:00 +6°C° 0.3 mm 2 m/s 749 mmHg 96%
12:00 +5°C° 0.3 mm 3 m/s 749 mmHg 97%
13:00 +5°C° 0.3 mm 3 m/s 749 mmHg 97%
14:00 +6°C° 0.5 mm 2 m/s 749 mmHg 97%
15:00 +6°C° 0.5 mm 2 m/s 749 mmHg 98%
16:00 +6°C° 0.5 mm 2 m/s 749 mmHg 98%
17:00 +6°C° 0 mm 2 m/s 749 mmHg 98%
18:00 +6°C° 0 mm 2 m/s 749 mmHg 98%
19:00 +6°C° 0 mm 2 m/s 749 mmHg 98%
20:00 +6°C° 0 mm 2 m/s 749 mmHg 98%
21:00 +6°C° 0 mm 2 m/s 749 mmHg 97%
22:00 +6°C° 0 mm 2 m/s 749 mmHg 97%
23:00 +6°C° 0.1 mm 2 m/s 749 mmHg 97%

18 Aprilie, Duminică

Timp Temperatura Precipitaţii Vânt Presiune Umiditate
00:00 +5°C° 0.1 mm 2 m/s 749 mmHg 97%
01:00 +5°C° 0.1 mm 2 m/s 748 mmHg 97%
02:00 +5°C° 0 mm 2 m/s 748 mmHg 97%
03:00 +5°C° 0 mm 2 m/s 748 mmHg 97%
04:00 +5°C° 0 mm 2 m/s 748 mmHg 97%
05:00 +5°C° 0 mm 2 m/s 748 mmHg 96%
06:00 +7°C° 0 mm 1 m/s 748 mmHg 96%
07:00 +7°C° 0 mm 1 m/s 748 mmHg 95%
08:00 +7°C° 0.1 mm 2 m/s 748 mmHg 93%
09:00 +8°C° 0.1 mm 2 m/s 748 mmHg 91%
10:00 +8°C° 0.1 mm 2 m/s 748 mmHg 89%
11:00 +9°C° 0.2 mm 2 m/s 748 mmHg 85%
12:00 +10°C° 0.2 mm 2 m/s 748 mmHg 81%
13:00 +10°C° 0.2 mm 2 m/s 748 mmHg 77%
14:00 +10°C° 0.2 mm 2 m/s 748 mmHg 76%
15:00 +12°C° 0.2 mm 2 m/s 748 mmHg 75%
16:00 +11°C° 0.2 mm 3 m/s 748 mmHg 74%
17:00 +10°C° 0.1 mm 3 m/s 748 mmHg 77%
18:00 +9°C° 0.1 mm 2 m/s 748 mmHg 80%
19:00 +8°C° 0.1 mm 2 m/s 748 mmHg 83%
20:00 +8°C° 0 mm 2 m/s 748 mmHg 84%
21:00 +8°C° 0 mm 2 m/s 748 mmHg 85%
22:00 +8°C° 0 mm 2 m/s 748 mmHg 86%
23:00 +7°C° 0 mm 2 m/s 748 mmHg 87%

19 Aprilie, Luni

Timp Temperatura Precipitaţii Vânt Presiune Umiditate
00:00 +7°C° 0 mm 2 m/s 748 mmHg 88%
01:00 +6°C° 0 mm 2 m/s 748 mmHg 89%
02:00 +6°C° 0 mm 2 m/s 748 mmHg 89%
03:00 +7°C° 0 mm 1 m/s 748 mmHg 89%
04:00 +7°C° 0 mm 1 m/s 748 mmHg 89%
05:00 +7°C° 0 mm 1 m/s 748 mmHg 88%
06:00 +7°C° 0 mm 2 m/s 748 mmHg 86%
07:00 +8°C° 0 mm 2 m/s 748 mmHg 84%
08:00 +8°C° 0.1 mm 2 m/s 747 mmHg 85%
09:00 +8°C° 0.1 mm 2 m/s 747 mmHg 85%
10:00 +8°C° 0.1 mm 2 m/s 747 mmHg 86%
11:00 +8°C° 0.4 mm 2 m/s 747 mmHg 88%
12:00 +8°C° 0.4 mm 2 m/s 747 mmHg 90%
13:00 +8°C° 0.4 mm 2 m/s 747 mmHg 92%
14:00 +7°C° 0.4 mm 2 m/s 746 mmHg 93%
15:00 +7°C° 0.4 mm 2 m/s 746 mmHg 93%
16:00 +8°C° 0.4 mm 1 m/s 746 mmHg 94%
17:00 +8°C° 0 mm 1 m/s 746 mmHg 94%
18:00 +8°C° 0 mm 1 m/s 746 mmHg 94%
19:00 +8°C° 0 mm 1 m/s 746 mmHg 94%
20:00 +8°C° 0 mm 1 m/s 745 mmHg 95%
21:00 +8°C° 0 mm 1 m/s 745 mmHg 95%
22:00 +7°C° 0 mm 1 m/s 745 mmHg 95%
23:00 +7°C° 0 mm 1 m/s 745 mmHg 95%
Arată mai mult

Formular de consimțământ

Meteoprog și furnizorii noștri de servicii pot stoca și accesa date personale, precum cookies, identificatori de dispozitiv sau alte tehnologii similare pe dispozitivul dumneavoastră și procesa astfel de date pentru a personaliza conținutul și reclamele, dar și pentru a oferi caracteristici de social media și pentru a analiza traficul.

  • Stocarea și/sau accesarea informațiilor pe dispozitivul dumneavoastră

    Cookies, identificatori de dispozitiv sau alte informații pot fi stocate sau accesate pe dispozitiv în scopurile indicate mai sus.

  • Reclame și conținut personalizat, evaluarea reclamelor și a conținutului, informații despre audiențe și dezvoltarea produselor

    Reclamele și conținutul pot fi personalizate pe baza unui profil. Pot fi adăugate date suplimentare pentru a personaliza mai bine reclamele și conținutul. Performanța reclamelor și conținutului poate fi măsurată. Pot fi obținute informații despre utilizatorii care au văzut reclamele și conținutul. Aceste date pot fi utilizate pentru a dezvolta sau îmbunătăți experiența utilizatorilor, sistemele și software-ul.

Dând clic pe ‘Sunt de acord’, permiteți utilizarea cookie-urilor menționate, a identificatorilor de dispozitiv, balizelor web sau altor tehnologii similare. Setările pot fi modificate din browser-ul dispozitivului dumneavoastră.

În anumite scopuri, interesele legitime pot prima asupra consimțământului. Puteți citi mai multe informații în acest sens în Politica privind Confidențialitatea Datelor și Cookie.